Hourly Data Report for September 17, 2017

All times are specified in Local Standard Time (LST). Add 1 hour to adjust for Daylight Saving Time where and when it is observed.

GJOA HAVEN A
NUNAVUT

68°38'08.000" N
95°51'01.000" W
46.90 m
2302337
71597
YHK

Download Data

Hourly Data (September 2017)
Hourly Data Report for September 17, 2017
Temp Definition
°C
Dew Point Temp Definition
°C
Rel Hum Definition
%
Wind Dir Definition
10's deg

Wind Spd Definition
km/h
Visibility Definition
km
Stn Press Definition
kPa
Hmdx Definition


Wind Chill Definition


Weather Definition


TIME
00:00 Legend Double Dagger 4.5 4.5 100 17 24 16.1 100.78     LegendNANA
01:00 Legend Double Dagger 4.7 4.4 98 19 28 16.1 100.70     LegendNANA
02:00 Legend Double Dagger 4.6 4.3 98 18 28 16.1 100.61     LegendNANA
03:00 Legend Double Dagger 4.9 4.5 97 19 30 16.1 100.51     LegendNANA
04:00 Legend Double Dagger 4.8 4.4 97 20 30 16.1 100.45     LegendNANA
05:00 Legend Double Dagger 4.6 4.2 97 20 34 16.1 100.39     LegendNANA
06:00 Legend Double Dagger 4.6 4.0 96 20 34 16.1 100.32     LegendNANA
07:00 Legend Double Dagger 5.1 4.2 94 20 32 16.1 100.26     LegendNANA
08:00 Legend Double Dagger 5.3 4.1 92 20 35 16.1 100.20     LegendNANA
09:00 Legend Double Dagger 5.8 4.5 91 20 32 16.1 100.16     LegendNANA
10:00 Legend Double Dagger 6.6 4.9 89 21 28 16.1 100.14     LegendNANA
11:00 Legend Double Dagger 6.8 5.1 89 20 26 16.1 100.09     LegendNANA
12:00 Legend Double Dagger 7.7 5.5 86 21 30 16.1 100.06     LegendNANA
13:00 Legend Double Dagger 8.7 5.7 81 22 34 16.1 100.04     LegendNANA
14:00 Legend Double Dagger 8.3 5.4 82 21 22 16.1 100.06     LegendNANA
15:00 Legend Double Dagger 8.7 5.6 81 23 32 16.1 100.02     LegendNANA
16:00 Legend Double Dagger 8.3 5.6 83 22 30 16.1 100.01     LegendNANA
17:00 Legend Double Dagger 7.7 5.4 85 23 30 16.1 100.00     LegendNANA
18:00 Legend Double Dagger 6.9 5.3 90 23 22 16.1 100.02     LegendNANA
19:00 Legend Double Dagger 6.5 5.1 91 24 18 16.1 100.05     LegendNANA
20:00 Legend Double Dagger 5.7 4.8 94 24 18 16.1 100.05     LegendNANA
21:00 Legend Double Dagger 5.6 4.9 95 24 15 16.1 100.08     LegendNANA
22:00 Legend Double Dagger 5.2 4.6 96 24 13 16.1 100.11     LegendNANA
23:00 Legend Double Dagger 5.1 4.7 97 24 15 16.1 100.14     LegendNANA

Notes on Data Quality.

Legend

  • E = Estimated
  • M = Missing
  • NA = Not Available
  • ‡ = Partner data that is not subject to review by the National Climate Archives
Date modified: